| time (UTC) | temp F | wind direction | speed knots | gust knots | rain 1hr in | rain 24hr in | rain mn in | humidity % | barometer mb |
| 20260504184512 | 58 | 297 | 0.0 | 1.7 | 0.00 | 0.00 | 0.00 | 72 | 1015.3 |
| 20260504183012 | 59 | 262 | 0.0 | 1.7 | 0.00 | 0.00 | 0.00 | 72 | 1015.4 |
| 20260504181508 | 60 | 157 | 0.0 | 0.0 | 0.00 | 0.00 | 0.00 | 68 | 1015.2 |
| 20260504180015 | 61 | 157 | 0.0 | 0.9 | 0.00 | 0.00 | 0.00 | 68 | 1015.4 |
| 20260504174513 | 62 | 180 | 0.0 | 2.6 | 0.00 | 0.00 | 0.00 | 67 | 1015.4 |
| 20260504173017 | 62 | 130 | 0.0 | 4.3 | 0.00 | 0.00 | 0.00 | 65 | 1015.2 |
| 20260504171514 | 63 | 171 | 0.0 | 2.6 | 0.00 | 0.00 | 0.00 | 62 | 1015.1 |
| 20260504081525 | 60 | 57 | 0.0 | 2.6 | 0.00 | 0.00 | 0.00 | 63 | 1017.4 |
| 20260504044526 | 49 | 355 | 0.9 | 3.5 | 0.00 | 0.00 | 0.00 | 71 | 1016.2 |
| 20260504043030 | 49 | 294 | 0.0 | 2.6 | 0.00 | 0.00 | 0.00 | 72 | 1016.0 |
| 20260504041503 | 50 | 274 | 1.7 | 4.3 | 0.00 | 0.00 | 0.00 | 69 | 1015.8 |
| 20260504040008 | 49 | 338 | 2.6 | 4.3 | 0.00 | 0.00 | 0.00 | 69 | 1015.8 |
| 20260504034508 | 50 | 242 | 0.0 | 2.6 | 0.00 | 0.00 | 0.00 | 69 | 1015.8 |
| 20260504033012 | 50 | 333 | 1.7 | 3.5 | 0.00 | 0.00 | 0.00 | 70 | 1015.7 |
| 20260504031517 | 50 | 241 | 0.9 | 3.5 | 0.00 | 0.00 | 0.00 | 71 | 1015.8 |
| 20260504030004 | 51 | 296 | 0.9 | 2.6 | 0.00 | 0.00 | 0.00 | 69 | 1015.8 |
| 20260504024505 | 51 | 261 | 1.7 | 2.6 | 0.00 | 0.00 | 0.00 | 70 | 1015.9 |
| 20260504023006 | 51 | 307 | 1.7 | 3.5 | 0.00 | 0.00 | 0.00 | 72 | 1016.0 |
| 20260504021513 | 51 | 321 | 0.9 | 3.5 | 0.00 | 0.00 | 0.00 | 74 | 1016.1 |
| 20260504020016 | 51 | 257 | 0.9 | 3.5 | 0.00 | 0.00 | 0.00 | 76 | 1016.1 |
| 20260504014510 | 51 | 352 | 1.7 | 4.3 | 0.00 | 0.00 | 0.00 | 76 | 1016.1 |
| 20260504013007 | 52 | 288 | 1.7 | 4.3 | 0.00 | 0.00 | 0.00 | 75 | 1016.0 |
| 20260504011512 | 52 | 292 | 1.7 | 4.3 | 0.00 | 0.00 | 0.00 | 76 | 1016.0 |
| 20260504010015 | 52 | 330 | 1.7 | 3.5 | 0.00 | 0.00 | 0.00 | 77 | 1016.0 |
| 20260504004523 | 52 | 238 | 1.7 | 3.5 | 0.00 | 0.00 | 0.00 | 77 | 1016.1 |
| 20260504003024 | 52 | 178 | 0.9 | 5.2 | 0.00 | 0.00 | 0.00 | 77 | 1016.1 |
| 20260504001508 | 52 | 194 | 1.7 | 3.5 | 0.00 | 0.00 | 0.00 | 76 | 1016.2 |
| 20260504000013 | 53 | 300 | 0.9 | 2.6 | 0.00 | 0.00 | 0.00 | 75 | 1016.3 |
| 20260503234522 | 53 | 309 | 0.0 | 3.5 | 0.00 | 0.00 | 0.00 | 75 | 1016.3 |
| 20260503233024 | 53 | 313 | 0.9 | 4.3 | 0.00 | 0.00 | 0.00 | 75 | 1016.5 |
| 20260503231541 | 53 | 296 | 0.9 | 3.5 | 0.00 | 0.00 | 0.00 | 76 | 1016.5 |
| 20260503230013 | 53 | 273 | 0.9 | 3.5 | 0.00 | 0.00 | 0.00 | 76 | 1016.6 |
| 20260503224516 | 53 | 303 | 0.9 | 2.6 | 0.00 | 0.00 | 0.00 | 77 | 1016.8 |
| 20260503223024 | 53 | 215 | 0.9 | 3.5 | 0.00 | 0.00 | 0.00 | 76 | 1016.9 |
| 20260503221524 | 53 | 202 | 0.9 | 2.6 | 0.00 | 0.00 | 0.00 | 76 | 1016.8 |
| 20260503220035 | 53 | 293 | 0.9 | 2.6 | 0.00 | 0.00 | 0.00 | 75 | 1016.7 |
| 20260503214514 | 54 | 261 | 0.9 | 3.5 | 0.00 | 0.00 | 0.00 | 74 | 1016.7 |
| 20260503213018 | 54 | 317 | 0.9 | 3.5 | 0.00 | 0.00 | 0.00 | 74 | 1016.6 |
| 20260503211525 | 55 | 307 | 0.9 | 2.6 | 0.00 | 0.00 | 0.00 | 72 | 1016.6 |
| 20260503210026 | 55 | 298 | 0.0 | 1.7 | 0.00 | 0.00 | 0.00 | 72 | 1016.7 |
| 20260503204541 | 55 | 290 | 0.9 | 2.6 | 0.00 | 0.00 | 0.00 | 72 | 1016.5 |
| 20260503203022 | 55 | 277 | 0.9 | 3.5 | 0.00 | 0.00 | 0.00 | 72 | 1016.6 |
| 20260503201525 | 55 | 278 | 0.0 | 3.5 | 0.00 | 0.00 | 0.00 | 72 | 1016.6 |
| 20260503200022 | 54 | 263 | 0.9 | 4.3 | 0.00 | 0.00 | 0.00 | 73 | 1016.6 |
| 20260503194529 | 55 | 286 | 1.7 | 4.3 | 0.00 | 0.00 | 0.00 | 73 | 1016.5 |
| 20260503193029 | 56 | 277 | 0.9 | 1.7 | 0.00 | 0.00 | 0.00 | 70 | 1016.5 |
| 20260503191517 | 57 | 284 | 0.0 | 1.7 | 0.00 | 0.00 | 0.00 | 69 | 1016.2 |
| 20260503190004 | 58 | 299 | 0.9 | 3.5 | 0.00 | 0.00 | 0.00 | 67 | 1016.2 |